This is the latest recevied weather packets stored in our database for station/object WA1OUI. If no packets are shown the sender has not sent any weather packets the latest 10 day(s).
| Time | Temp. | Humidity | Pressure | Rain* | Wind** | Luminosity | Snow |
|---|---|---|---|---|---|---|---|
| 1777561430 | 10° C | 98% | 1005.6 hPa | 0.51 mm | - | 55 W/m² | - |
| 1777561126 | 10° C | 98% | 1005.6 hPa | 0.51 mm | - | 42 W/m² | - |
| 1777560821 | 9.44° C | 98% | 1005.5 hPa | 0 mm | - | 53 W/m² | - |
| 1777560519 | 9.44° C | 98% | 1005.5 hPa | 0 mm | - | 63 W/m² | - |
| 1777560217 | 9.44° C | 98% | 1005.5 hPa | 0 mm | - | 30 W/m² | - |
| 1777559913 | 9.44° C | 98% | 1005.5 hPa | 0 mm | - | 39 W/m² | - |
| 1777559608 | 9.44° C | 98% | 1005.6 hPa | 0 mm | - | 42 W/m² | - |
| 1777559307 | 9.44° C | 98% | 1005.4 hPa | 0 mm | - | 50 W/m² | - |
| 1777559002 | 9.44° C | 98% | 1005.4 hPa | 0 mm | - | 63 W/m² | - |
| 1777558698 | 9.44° C | 98% | 1005.2 hPa | 0 mm | - | 58 W/m² | - |
| 1777558394 | 9.44° C | 98% | 1005.4 hPa | 0 mm | - | 79 W/m² | - |
| 1777558090 | 9.44° C | 98% | 1005.4 hPa | 0 mm | - | 72 W/m² | - |
| 1777557787 | 9.44° C | 98% | 1005.4 hPa | 0 mm | - | 49 W/m² | - |
| 1777557484 | 9.44° C | 98% | 1005.5 hPa | 0 mm | - | 27 W/m² | - |
| 1777557180 | 8.89° C | 98% | 1005.6 hPa | 0 mm | - | 23 W/m² | - |
| 1777556875 | 9.44° C | 98% | 1005.6 hPa | 0 mm | - | 32 W/m² | - |
| 1777556572 | 8.89° C | 98% | 1005.5 hPa | 0 mm | - | 26 W/m² | - |
| 1777556272 | 8.89° C | 98% | 1005.6 hPa | 0 mm | - | 28 W/m² | - |
| 1777555968 | 8.89° C | 98% | 1005.6 hPa | 0 mm | - | 39 W/m² | - |
| 1777555663 | 9.44° C | 98% | 1005.6 hPa | 0 mm | - | 31 W/m² | - |
| 1777555360 | 8.89° C | 98% | 1005.4 hPa | 0 mm | - | 44 W/m² | - |
| 1777555056 | 8.89° C | 98% | 1005.4 hPa | 0 mm | - | 45 W/m² | - |
| 1777554754 | 8.89° C | 98% | 1005.7 hPa | 0 mm | - | 25 W/m² | - |
| 1777554451 | 8.89° C | 98% | 1005.7 hPa | 0 mm | - | 35 W/m² | - |
| 1777554147 | 8.89° C | 98% | 1005.7 hPa | 0 mm | - | 31 W/m² | - |
* Rain latest hour (hover to see other rain measurements)
** Current wind speed in m/s (hover to see current wind gust speed)